TimeCST,TemperatureF,Dew PointF,Humidity,Sea Level PressureIn,VisibilityMPH,Wind Direction,Wind SpeedMPH,Gust SpeedMPH,PrecipitationIn,Events,Conditions,WindDirDegrees,DateUTC
12:15 AM,24.8,17.6,74,30.43,10.0,ENE,4.6,-,N/A,,Clear,60,2013-11-25 06:15:00
12:35 AM,26.6,17.6,69,30.42,10.0,East,6.9,-,N/A,,Clear,80,2013-11-25 06:35:00
12:55 AM,26.6,15.8,64,30.40,10.0,East,5.8,-,N/A,,Clear,80,2013-11-25 06:55:00
1:15 AM,26.6,15.8,64,30.39,10.0,East,5.8,-,N/A,,Clear,90,2013-11-25 07:15:00
1:35 AM,26.6,15.8,64,30.39,10.0,East,5.8,-,N/A,,Clear,90,2013-11-25 07:35:00
1:55 AM,26.6,14.0,59,30.39,10.0,East,8.1,-,N/A,,Clear,90,2013-11-25 07:55:00
2:15 AM,26.6,14.0,59,30.38,10.0,East,8.1,-,N/A,,Clear,90,2013-11-25 08:15:00
2:35 AM,28.4,12.2,51,30.38,10.0,East,5.8,-,N/A,,Clear,90,2013-11-25 08:35:00
2:55 AM,28.4,12.2,51,30.38,10.0,East,5.8,-,N/A,,Partly Cloudy,100,2013-11-25 08:55:00
3:15 AM,28.4,14.0,55,30.37,10.0,Calm,Calm,-,N/A,,Partly Cloudy,0,2013-11-25 09:15:00
3:35 AM,28.4,14.0,55,30.37,10.0,East,3.5,-,N/A,,Clear,80,2013-11-25 09:35:00
3:55 AM,28.4,14.0,55,30.37,10.0,Calm,Calm,-,N/A,,Clear,0,2013-11-25 09:55:00
4:15 AM,28.4,14.0,55,30.37,10.0,NE,3.5,-,N/A,,Mostly Cloudy,40,2013-11-25 10:15:00
4:35 AM,28.4,15.8,59,30.37,10.0,ENE,3.5,-,N/A,,Partly Cloudy,60,2013-11-25 10:35:00
4:55 AM,28.4,15.8,59,30.38,10.0,Calm,Calm,-,N/A,,Clear,0,2013-11-25 10:55:00
5:15 AM,28.4,15.8,59,30.37,10.0,ENE,4.6,-,N/A,,Clear,60,2013-11-25 11:15:00
5:35 AM,28.4,17.6,64,30.36,10.0,East,4.6,-,N/A,,Clear,80,2013-11-25 11:35:00
5:55 AM,28.4,17.6,64,30.37,10.0,East,3.5,-,N/A,,Clear,80,2013-11-25 11:55:00
6:15 AM,28.4,17.6,64,30.36,10.0,Calm,Calm,-,N/A,,Clear,0,2013-11-25 12:15:00
6:35 AM,28.4,17.6,64,30.37,10.0,Calm,Calm,-,N/A,,Scattered Clouds,0,2013-11-25 12:35:00
6:55 AM,28.4,19.4,69,30.36,10.0,Calm,Calm,-,N/A,,Scattered Clouds,0,2013-11-25 12:55:00
7:15 AM,28.4,17.6,64,30.35,10.0,SE,4.6,-,N/A,,Mostly Cloudy,130,2013-11-25 13:15:00
7:35 AM,30.2,19.4,64,30.35,10.0,Calm,Calm,-,N/A,,Overcast,0,2013-11-25 13:35:00
7:55 AM,32.0,17.6,55,30.34,10.0,SE,3.5,-,N/A,,Mostly Cloudy,130,2013-11-25 13:55:00
8:15 AM,33.8,19.4,56,30.35,10.0,Calm,Calm,-,N/A,,Mostly Cloudy,0,2013-11-25 14:15:00
8:35 AM,35.6,17.6,48,30.33,10.0,ESE,4.6,-,N/A,,Overcast,120,2013-11-25 14:35:00
8:55 AM,35.6,19.4,52,30.34,10.0,South,3.5,-,N/A,,Overcast,170,2013-11-25 14:55:00
9:15 AM,37.4,17.6,45,30.35,10.0,South,5.8,-,N/A,,Overcast,170,2013-11-25 15:15:00
9:35 AM,37.4,17.6,45,30.35,10.0,South,5.8,-,N/A,,Overcast,170,2013-11-25 15:35:00
9:55 AM,37.4,17.6,45,30.33,10.0,South,5.8,-,N/A,,Mostly Cloudy,170,2013-11-25 15:55:00
10:15 AM,39.2,19.4,45,30.34,10.0,South,4.6,-,N/A,,Mostly Cloudy,170,2013-11-25 16:15:00
10:35 AM,39.2,19.4,45,30.34,10.0,Calm,Calm,-,N/A,,Overcast,0,2013-11-25 16:35:00
10:55 AM,39.2,17.6,42,30.33,10.0,SSE,6.9,-,N/A,,Overcast,160,2013-11-25 16:55:00
11:15 AM,39.2,17.6,42,30.32,10.0,South,8.1,-,N/A,,Mostly Cloudy,180,2013-11-25 17:15:00
11:35 AM,39.2,17.6,42,30.30,10.0,South,6.9,-,N/A,,Partly Cloudy,170,2013-11-25 17:35:00
11:55 AM,39.2,17.6,42,30.29,10.0,SSE,6.9,-,N/A,,Clear,150,2013-11-25 17:55:00
12:15 PM,41.0,17.6,39,30.28,10.0,South,3.5,-,N/A,,Partly Cloudy,170,2013-11-25 18:15:00
12:35 PM,41.0,17.6,39,30.28,10.0,SSE,5.8,-,N/A,,Partly Cloudy,160,2013-11-25 18:35:00
12:55 PM,41.0,17.6,39,30.28,10.0,SSE,3.5,-,N/A,,Clear,150,2013-11-25 18:55:00
1:15 PM,41.0,19.4,42,30.27,10.0,SSE,3.5,-,N/A,,Clear,160,2013-11-25 19:15:00
1:35 PM,39.2,21.2,49,30.29,10.0,SSW,4.6,-,N/A,,Partly Cloudy,200,2013-11-25 19:35:00
1:55 PM,39.2,21.2,49,30.28,10.0,Calm,Calm,-,N/A,,Partly Cloudy,0,2013-11-25 19:55:00
2:15 PM,39.2,23.0,52,30.27,10.0,SE,4.6,-,N/A,,Partly Cloudy,140,2013-11-25 20:15:00
2:35 PM,37.4,24.8,60,30.25,10.0,Calm,Calm,-,N/A,,Partly Cloudy,0,2013-11-25 20:35:00
2:55 PM,37.4,28.4,70,30.25,10.0,ENE,5.8,-,N/A,,Mostly Cloudy,70,2013-11-25 20:55:00
3:15 PM,37.4,32.0,81,30.23,10.0,ENE,6.9,-,N/A,,Unknown,60,2013-11-25 21:15:00
3:35 PM,35.6,32.0,87,30.23,10.0,East,4.6,-,N/A,,Overcast,80,2013-11-25 21:35:00
3:55 PM,35.6,35.6,100,30.24,10.0,Calm,Calm,-,N/A,,Overcast,0,2013-11-25 21:55:00
4:15 PM,35.6,35.6,100,30.23,9.0,ESE,3.5,-,N/A,,Overcast,110,2013-11-25 22:15:00
4:35 PM,35.6,35.6,100,30.23,8.0,ESE,3.5,-,N/A,,Overcast,110,2013-11-25 22:35:00
4:55 PM,33.8,33.8,100,30.22,7.0,ENE,4.6,-,N/A,,Overcast,70,2013-11-25 22:55:00
5:15 PM,33.8,33.8,100,30.24,8.0,ENE,3.5,-,N/A,,Unknown,60,2013-11-25 23:15:00
5:35 PM,33.8,33.8,100,30.26,8.0,Calm,Calm,-,N/A,,Overcast,0,2013-11-25 23:35:00
5:55 PM,33.8,33.8,100,30.26,10.0,NE,4.6,-,N/A,,Overcast,40,2013-11-25 23:55:00
6:15 PM,33.8,33.8,100,30.25,10.0,East,4.6,-,N/A,,Overcast,90,2013-11-26 00:15:00
6:35 PM,33.8,33.8,100,30.24,10.0,Calm,Calm,-,N/A,,Overcast,0,2013-11-26 00:35:00
6:55 PM,33.8,33.8,100,30.24,10.0,ENE,3.5,-,N/A,,Unknown,70,2013-11-26 00:55:00
7:15 PM,33.8,33.8,100,30.23,10.0,Calm,Calm,-,N/A,,Overcast,0,2013-11-26 01:15:00
7:35 PM,33.8,33.8,100,30.21,10.0,East,4.6,-,N/A,,Overcast,90,2013-11-26 01:35:00
7:55 PM,33.8,33.8,100,30.20,10.0,East,3.5,-,N/A,,Overcast,80,2013-11-26 01:55:00
8:15 PM,33.8,33.8,100,30.19,10.0,East,4.6,-,N/A,,Overcast,100,2013-11-26 02:15:00
8:35 PM,33.8,33.8,100,30.19,10.0,East,4.6,-,N/A,,Overcast,100,2013-11-26 02:35:00
8:55 PM,33.8,33.8,100,30.18,10.0,ENE,3.5,-,N/A,,Overcast,70,2013-11-26 02:55:00
9:15 PM,33.8,33.8,100,30.16,10.0,East,4.6,-,N/A,,Overcast,90,2013-11-26 03:15:00
9:35 PM,33.8,33.8,100,30.14,10.0,East,4.6,-,N/A,,Overcast,90,2013-11-26 03:35:00
9:55 PM,33.8,33.8,100,30.14,10.0,East,3.5,-,N/A,,Mostly Cloudy,100,2013-11-26 03:55:00
10:15 PM,33.8,33.8,100,30.15,10.0,Calm,Calm,-,N/A,,Mostly Cloudy,0,2013-11-26 04:15:00
10:35 PM,35.6,35.6,100,30.16,10.0,NE,3.5,-,N/A,,Mostly Cloudy,40,2013-11-26 04:35:00
10:55 PM,35.6,35.6,100,30.16,6.0,Calm,Calm,-,N/A,,Overcast,0,2013-11-26 04:55:00
11:35 PM,-9999,-9999,N/A,30.16,6.0,Calm,Calm,-,N/A,,Overcast,0,2013-11-26 05:35:00
11:55 PM,-9999,-9999,N/A,30.15,6.0,Calm,Calm,-,N/A,,Overcast,0,2013-11-26 05:55:00